Tracking 29892 objects as of 21-Nov-2024
HD Live streaming from Space Station
objects crossing your sky now

STRIX-3

Track STRIX-3 now!
10-day predictions


NORAD ID: 59224
Int'l Code: 2024-047A
Perigee: 543.7 km
Apogee: 564.4 km
Inclination: 97.6 °
Period: 95.6 minutes
Semi major axis: 6925 km
RCS: Unknown
Launch date: March 12, 2024
Source: New Zealand (NZ)
Launch site: Rocket Lab Launch Complex (RLLC)
Your satellite tracking list
Your tracking list is empty




NASA's NSSDC Master Catalog

Two Line Element Set (TLE):
1 59224U 24047A   24326.15279647  .00010750  00000-0  72928-3 0  9991
2 59224  97.5986 290.0431 0014942 230.6122 129.3782 15.06511419 38076
Source of the keplerian elements: AFSPC